• Processing (Info)

  • MPEC 2008-G27 : 2008 GE1

    The following Minor Planet Electronic Circular may be linked-to from your own Web pages, but must not otherwise be redistributed electronically.

    A form allowing access to any MPEC is at the bottom of this page.


    Read MPEC 2008-G26 Read MPEC 2008-G28


    M.P.E.C. 2008-G27                                Issued 2008 Apr. 5, 11:32 UT
    
         The Minor Planet Electronic Circulars contain information on unusual
             minor planets and routine data on comets.  They are published
       on behalf of Commission 20 of the International Astronomical Union by the
              Minor Planet Center, Smithsonian Astrophysical Observatory,
                              Cambridge, MA 02138, U.S.A.
    
                 Prepared using the Tamkin Foundation Computer Network
    
                                  MPC@CFA.HARVARD.EDU
              URL http://www.cfa.harvard.edu/iau/mpc.html  ISSN 1523-6714
    
                                       2008 GE1
    
    Observations:
         K08G01E* C2008 04 04.38368 14 39 30.06 -00 49 49.4          21.1 V EG027G96
         K08G01E  C2008 04 04.39018 14 39 29.62 -00 49 45.8          21.1 V EG027G96
         K08G01E  C2008 04 04.39670 14 39 29.16 -00 49 41.7          20.9 V EG027G96
         K08G01E  C2008 04 04.40329 14 39 28.65 -00 49 37.9          21.2 V EG027G96
         K08G01E  C2008 04 04.47089 14 39 23.84 -00 48 56.5          20.7 V EG027G96
         K08G01E  C2008 04 04.47913 14 39 23.25 -00 48 51.6          20.5 V EG027G96
         K08G01E  C2008 04 04.48745 14 39 22.67 -00 48 46.9          20.8 V EG027G96
         K08G01E  C2008 04 05.35985 14 38 23.24 -00 40 00.0          20.7 V EG027G96
         K08G01E  C2008 04 05.36831 14 38 22.63 -00 39 55.1          20.9 V EG027G96
         K08G01E  C2008 04 05.37576 14 38 21.96 -00 39 51.7          20.5 R EG027734
         K08G01E  C2008 04 05.37672 14 38 21.98 -00 39 49.8          20.8 V EG027G96
         K08G01E  C2008 04 05.38161 14 38 21.55 -00 39 47.3          20.5 R EG027734
         K08G01E  C2008 04 05.38513 14 38 21.44 -00 39 44.3          20.7 V EG027G96
         K08G01E  C2008 04 05.39401 14 38 20.63 -00 39 39.5          21.5 R EG027734
         K08G01E  C2008 04 05.42653 14 38 18.39 -00 39 20.2          21.5 V EG027291
         K08G01E  C2008 04 05.43027 14 38 18.07 -00 39 17.6          21.5 V EG027291
         K08G01E  C2008 04 05.43403 14 38 17.82 -00 39 15.7          21.3 V EG027291
    
    Observer details:
    291 LPL/Spacewatch II.  Observer M. T. Read.  1.8-m f/2.7 reflector + CCD.
    734 Farpoint Observatory.  Observer D. Tibbets.  Measurer G. Hug.  0.7-m
        reflector + CCD.
    G96 Mt. Lemmon Survey.  Observer S. M. Larson.  Measurers E. C. Beshore,
        A. Boattini, G. J. Garradd, A. R. Gibbs, A. D. Grauer, R. E. Hill,
        R. A. Kowalski, S. M. Larson, R. H. McNaught.  1.5-m reflector + CCD.
    
    Orbital elements:
    2008 GE1                                                 Earth MOID = 0.2504 AU
    Epoch 2008 May 14.0 TT = JDT 2454600.5                  MPC
    M  78.60891              (2000.0)            P               Q
    n   0.39184358     Peri.  325.67102     -0.22325990     -0.97131982
    a   1.8495279      Node   137.06616     +0.91910455     -0.23772341
    e   0.3382440      Incl.    6.89814     +0.32465650     +0.00503888
    P   2.52           H   19.4           G   0.15           U   9
    Residuals in seconds of arc
    080404 G96  0.2-  0.2+    080404 G96  0.0   0.3-    080405 G96  0.6+  0.6+
    080404 G96  0.2+  0.1-    080405 G96  0.1-  0.1+    080405 734  0.3+  1.0+
    080404 G96  0.3+  0.0     080405 G96  0.0   0.1-    080405 291  0.2+  0.3-
    080404 G96  0.3-  0.2-    080405 734  0.3+  0.2-    080405 291  0.5-  0.1+
    080404 G96  0.1-  0.2+    080405 G96  0.5-  0.1+    080405 291  0.1-  0.3-
    080404 G96  0.1-  0.1+    080405 734  0.6+  0.6+
    
    Ephemeris:
    2008 GE1                 a,e,i = 1.85, 0.34, 7                   q = 1.2239
    Date    TT    R. A. (2000) Decl.     Delta      r     Elong.  Phase     V
    2008 04 04    14 39.93   -00 53.6    0.813    1.764   153.0    14.9    21.0
    2008 04 14    14 27.60   +00 40.8    0.826    1.808   162.5     9.6    20.9
    2008 04 24    14 14.39   +01 52.8    0.861    1.851   165.1     8.0    21.0
    2008 05 04    14 02.29   +02 34.0    0.918    1.893   158.6    11.2    21.3
    2008 05 14    13 52.85   +02 42.3    0.997    1.935   149.0    15.6    21.7
    
    Timothy B. Spahr             (C) Copyright 2008 MPC           M.P.E.C. 2008-G27
    

    Read MPEC 2008-G26 Read MPEC 2008-G28


    MPEC number:

    Enter an MPEC number in one of the following forms:

    • 1997-B01 (the full form)
    • J97B01 (the packed version of the full form)
    • B01 (the abbreviated form)